TimeEST,TemperatureF,Dew PointF,Humidity,Sea Level PressureIn,VisibilityMPH,Wind Direction,Wind SpeedMPH,Gust SpeedMPH,PrecipitationIn,Events,Conditions,WindDirDegrees,DateUTC
12:53 AM,21.9,19.0,89,30.12,10.0,Calm,Calm,-,N/A,,Clear,0,2013-03-04 05:53:00
1:53 AM,21.0,19.0,92,30.13,10.0,Calm,Calm,-,N/A,,Clear,0,2013-03-04 06:53:00
2:53 AM,21.0,19.0,92,30.14,9.0,Calm,Calm,-,N/A,,Clear,0,2013-03-04 07:53:00
3:53 AM,19.9,18.0,92,30.14,9.0,Calm,Calm,-,N/A,,Clear,0,2013-03-04 08:53:00
4:53 AM,19.9,17.1,89,30.14,9.0,Calm,Calm,-,N/A,,Clear,0,2013-03-04 09:53:00
5:53 AM,19.9,17.1,89,30.15,9.0,Calm,Calm,-,N/A,,Clear,0,2013-03-04 10:53:00
6:53 AM,19.9,18.0,92,30.15,10.0,Calm,Calm,-,N/A,,Clear,0,2013-03-04 11:53:00
7:53 AM,21.0,19.0,92,30.14,9.0,Calm,Calm,-,N/A,,Clear,0,2013-03-04 12:53:00
8:53 AM,26.1,19.9,78,30.15,10.0,SE,6.9,-,N/A,,Clear,140,2013-03-04 13:53:00
9:53 AM,30.0,19.9,66,30.14,10.0,SSE,9.2,-,N/A,,Clear,150,2013-03-04 14:53:00
10:53 AM,32.0,19.9,61,30.13,10.0,SSE,8.1,-,N/A,,Clear,160,2013-03-04 15:53:00
11:53 AM,34.0,19.0,54,30.11,10.0,SE,10.4,-,N/A,,Clear,140,2013-03-04 16:53:00
12:53 PM,37.0,19.0,48,30.08,10.0,SSE,8.1,-,N/A,,Overcast,150,2013-03-04 17:53:00
1:53 PM,37.0,19.0,48,30.06,10.0,ESE,12.7,-,N/A,,Overcast,120,2013-03-04 18:53:00
2:53 PM,37.0,21.9,54,30.03,10.0,SE,12.7,17.3,0.00,,Overcast,130,2013-03-04 19:53:00
3:53 PM,35.1,24.1,64,30.01,10.0,ESE,11.5,-,0.00,Rain,Light Rain,120,2013-03-04 20:53:00
4:53 PM,36.0,24.1,62,30.01,10.0,ESE,9.2,-,0.00,,Overcast,120,2013-03-04 21:53:00
5:53 PM,36.0,24.1,62,29.99,10.0,ESE,11.5,19.6,0.01,,Overcast,120,2013-03-04 22:53:00
6:53 PM,36.0,24.1,62,29.98,10.0,ESE,10.4,-,N/A,,Overcast,110,2013-03-04 23:53:00
7:53 PM,36.0,23.0,59,30.01,10.0,East,8.1,-,N/A,,Overcast,100,2013-03-05 00:53:00
8:53 PM,36.0,25.0,64,30.01,10.0,ESE,8.1,-,N/A,,Overcast,110,2013-03-05 01:53:00
9:53 PM,36.0,25.0,64,30.02,10.0,East,8.1,-,N/A,,Overcast,100,2013-03-05 02:53:00
10:53 PM,36.0,25.0,64,30.00,10.0,East,6.9,-,0.00,Rain,Light Rain,100,2013-03-05 03:53:00
11:53 PM,35.1,28.0,76,29.98,10.0,ENE,5.8,-,0.00,,Overcast,70,2013-03-05 04:53:00